Regional Weather Roundup
Issued by NWS Albany, NY

Home | Current Version | Previous Version | Text Only | Print | Product List | Glossary On
Versions: 1 2 3 4 5 6 7 8 9 10 11 12 13 14 15 16 17 18 19 20 21 22 23 24 25 26 27 28 29 30 31 32 33 34 35 36 37 38 39 40 41 42 43 44 45 46 47 48
000
ASUS41 KALY 032210
RWRALY

NEW YORK STATE HOURLY WEATHER ROUNDUP
NATIONAL WEATHER SERVICE ALBANY NY
500 PM EST TUE MAR 03 2015

NOTE: "FAIR" INDICATES FEW OR NO CLOUDS BELOW 12,000 FEET WITH NO
SIGNIFICANT WEATHER AND/OR NO OBSTRUCTIONS TO VISIBILITY.

NYZ032-033-038>043-046>054-057>066-NYZ062>081-032300-
EAST


CITY           SKY/WX    TMP DP  RH WIND       PRES   REMARKS
ALBANY         LGT SNOW  24  18  77 SE12G20   30.06F VSB 1   WCI  13
GLENS FALLS    SNOW      23  18  81 S9        30.05F VSB 1/2 WCI  13
POUGHKEEPSIE   SNOW      25  21  85 SE6       30.14F VSB 1/4 WCI  18
NEWBURGH       LGT SNOW  25  23  93 S7        30.14F WCI  17
MONTGOMERY     SNOW      25  23  92 S6        30.12F VSB 1/2 WCI  18
WHITE PLAINS   SNOW      24  22  91 SE10      30.15F VSB 1/2 WCI  14
ISLIP          FLURRIES  28  16  60 SE8       30.19F WCI  20
NEW YORK CITY  SNOW      28  27  93 S13       30.18F VSB 1/4 WCI  18
CENTRAL PARK   HVY SNOW  29  24  82 S9G17     30.19F VSB 1/4 WCI  20
$$

NYZ005>009-017-018-044>046-055-056-032300-
CENTRAL


CITY           SKY/WX    TMP DP  RH WIND       PRES   REMARKS
FULTON         LGT SNOW  24  20  84 SE10      29.82F FOG     WCI  14
SYRACUSE       LGT SNOW  21  21 100 SE13      29.83F VSB 1   WCI   9
ROME           HVY SNOW  21  19  92 E9        29.95F VSB 1/4 WCI  11
ELMIRA         MIX PCPN  24  19  81 S8        29.85F WCI  15
BINGHAMTON     SNOW      20  16  84 S16G28    29.86F VSB 1/2 WCI   6
MONTICELLO     CLOUDY    19  18  93 SE13      30.04F VSB 1/2 WCI   7
$$

NYZ026>034-041>043-032300-
NORTH


CITY           SKY/WX    TMP DP  RH WIND       PRES   REMARKS
WATERTOWN      LGT SNOW  27  19  72 SE12G17   29.82F WCI  17
FORT DRUM      NOT AVBL
MASSENA        CLOUDY    22   7  52 NE6       29.90F WCI  14
SARANAC LAKE   LGT SNOW  20  12  71 S8        29.80F WCI  10
PLATTSBURGH    CLOUDY    25   4  40 S13G20    29.95F WCI  14
$$

NYZ001>004-010>016-019>021-032300-
WEST


CITY           SKY/WX    TMP DP  RH WIND       PRES   REMARKS
NIAGARA FALLS  FRZ RAIN  30  26  85 S9        29.62F FOG     WCI  22
BUFFALO        FRZ RAIN  32  27  81 S15       29.63F WCI  22
DUNKIRK        FLURRIES  34  29  82 S26G38    29.61F WCI  21
JAMESTOWN      CLOUDY    28  27  93 S16G23    29.64F WCI  17
WELLSVILLE     MIX PCPN  23  18  81 S13G28    29.70F WCI  11
ROCHESTER      FRZ RAIN  28  23  81 S15       29.71F FOG     WCI  16
PENN YAN       MIX PCPN  24  18  77 S16       29.77F WCI  11
$$

             KEY
       WCI = WIND CHILL INDEX
       VSB = VISIBILITY
       HX  = HEAT INDEX
$$


USA.gov is the U.S. government's official web portal to all federal, state and local government web resources and services.